{"data":{"norad_id":43034,"intl_designator":"2017-077A","name":"LKW-1","alt_names":[],"object_type":"PAYLOAD","status":"ACTIVE","operator":null,"country":"PRC","launch_date":"2017-12-03","launch_site_code":"JSC","launch_vehicle":null,"mission":null,"orbit_class":"UNKNOWN","rcs_meters":null,"size_class":null,"mass_kg":null,"dimensions":null,"purposes":[],"wikipedia_slug":null,"has_3d_model":false,"image_url":null,"decayed_at":null,"tle_current":{"epoch":"2026-05-25T04:18:40.387968Z","epoch_age_seconds":59284,"freshness":"FRESH","line1":"1 43034U 17077A   26145.17963412  .00003474  00000+0  14800-3 0  9990","line2":"2 43034  97.1004 180.6374 0001546 107.4612 252.6795 15.23581090471195","mean_motion":15.2358109,"eccentricity":0.0001546,"inclination_deg":97.1004,"raan_deg":180.6374,"arg_perigee_deg":107.4612,"mean_anomaly_deg":252.6795,"bstar":0.000148,"rev_number":47119,"period_min":94.514168589478,"perigee_km":493.98685921957,"apogee_km":496.1120484711,"semimajor_km":6873.1864538453,"source":"CELESTRAK","updated_at":"2026-05-25T13:37:55.757729Z"}}}